Time,TemperatureF,DewpointF,PressureIn,WindDirection,WindDirectionDegrees,WindSpeedMPH,WindSpeedGustMPH,Humidity,HourlyPrecipIn,Conditions,Clouds,dailyrainin,SoftwareType,DateUTC
2013-03-16 00:00:00,67.7,46.8,29.72,SSW,192,15.0,15.0,47,0.00,,---,0.00,VWS V14.00,2013-03-16 05:00:00,
2013-03-16 00:05:00,67.5,47.1,29.72,South,186,13.0,16.0,48,0.00,,---,0.00,VWS V14.00,2013-03-16 05:05:00,
2013-03-16 00:10:00,67.3,47.0,29.72,South,190,10.0,16.0,48,0.00,,---,0.00,VWS V14.00,2013-03-16 05:10:00,
2013-03-16 00:15:00,67.1,47.3,29.72,South,186,13.0,17.0,49,0.00,,---,0.00,VWS V14.00,2013-03-16 05:15:00,
2013-03-16 00:20:00,66.8,47.0,29.72,SSW,196,16.0,18.0,49,0.00,,---,0.00,VWS V14.00,2013-03-16 05:20:00,
2013-03-16 00:25:00,66.7,47.0,29.71,SSW,205,14.0,14.0,49,0.00,,---,0.00,VWS V14.00,2013-03-16 05:25:00,
2013-03-16 00:30:00,66.5,46.8,29.71,SSW,192,15.0,17.0,49,0.00,,---,0.00,VWS V14.00,2013-03-16 05:30:00,
2013-03-16 00:35:00,66.5,47.3,29.71,South,182,14.0,16.0,50,0.00,,---,0.00,VWS V14.00,2013-03-16 05:35:00,
2013-03-16 00:40:00,66.3,47.1,29.71,SSW,198,15.0,15.0,50,0.00,,---,0.00,VWS V14.00,2013-03-16 05:40:00,
2013-03-16 00:45:00,66.2,47.0,29.72,SSW,202,13.0,16.0,50,0.00,,---,0.00,VWS V14.00,2013-03-16 05:45:00,
2013-03-16 00:50:00,66.1,46.9,29.72,SSW,193,10.0,13.0,50,0.00,,---,0.00,VWS V14.00,2013-03-16 05:50:00,
2013-03-16 00:55:00,65.9,46.8,29.72,SSW,195,9.0,11.0,50,0.00,,---,0.00,VWS V14.00,2013-03-16 05:55:00,
2013-03-16 01:00:00,65.8,46.7,29.72,SSW,196,10.0,13.0,50,0.00,,---,0.00,VWS V14.00,2013-03-16 06:00:00,
2013-03-16 01:05:00,65.6,46.5,29.72,SSW,202,11.0,14.0,50,0.00,,---,0.00,VWS V14.00,2013-03-16 06:05:00,
2013-03-16 01:10:00,65.4,46.8,29.71,SSW,197,12.0,16.0,51,0.00,,---,0.00,VWS V14.00,2013-03-16 06:10:00,
2013-03-16 01:15:00,65.2,46.6,29.71,South,189,10.0,12.0,51,0.00,,---,0.00,VWS V14.00,2013-03-16 06:15:00,
2013-03-16 01:20:00,64.9,46.4,29.71,South,190,10.0,13.0,51,0.00,,---,0.00,VWS V14.00,2013-03-16 06:20:00,
2013-03-16 01:25:00,64.8,46.3,29.71,SSW,195,12.0,15.0,51,0.00,,---,0.00,VWS V14.00,2013-03-16 06:25:00,
2013-03-16 01:30:00,64.7,46.2,29.71,South,187,13.0,15.0,51,0.00,,---,0.00,VWS V14.00,2013-03-16 06:30:00,
2013-03-16 01:35:00,64.6,46.6,29.71,SSW,198,10.0,13.0,52,0.00,,---,0.00,VWS V14.00,2013-03-16 06:35:00,
2013-03-16 01:40:00,64.5,46.5,29.71,SSW,192,12.0,12.0,52,0.00,,---,0.00,VWS V14.00,2013-03-16 06:40:00,
2013-03-16 01:45:00,64.3,46.3,29.70,SSW,196,10.0,13.0,52,0.00,,---,0.00,VWS V14.00,2013-03-16 06:45:00,
2013-03-16 01:50:00,64.3,46.3,29.70,South,189,12.0,14.0,52,0.00,,---,0.00,VWS V14.00,2013-03-16 06:50:00,
2013-03-16 01:55:00,64.2,46.2,29.70,South,188,13.0,13.0,52,0.00,,---,0.00,VWS V14.00,2013-03-16 06:55:00,
2013-03-16 02:00:00,64.1,46.1,29.70,SSW,192,10.0,13.0,52,0.00,,---,0.00,VWS V14.00,2013-03-16 07:00:00,
2013-03-16 02:05:00,64.0,46.5,29.70,SSW,194,10.0,14.0,53,0.00,,---,0.00,VWS V14.00,2013-03-16 07:05:00,
2013-03-16 02:10:00,63.9,46.5,29.70,SSW,195,12.0,13.0,53,0.00,,---,0.00,VWS V14.00,2013-03-16 07:10:00,
2013-03-16 02:15:00,63.9,46.0,29.70,South,189,7.0,15.0,52,0.00,,---,0.00,VWS V14.00,2013-03-16 07:15:00,
2013-03-16 02:20:00,63.9,46.0,29.70,SSW,192,13.0,13.0,52,0.00,,---,0.00,VWS V14.00,2013-03-16 07:20:00,
2013-03-16 02:25:00,63.8,45.9,29.70,South,186,9.0,15.0,52,0.00,,---,0.00,VWS V14.00,2013-03-16 07:25:00,
2013-03-16 02:30:00,63.7,45.8,29.70,South,189,9.0,13.0,52,0.00,,---,0.00,VWS V14.00,2013-03-16 07:30:00,
2013-03-16 02:35:00,63.6,45.7,29.70,South,188,11.0,13.0,52,0.00,,---,0.00,VWS V14.00,2013-03-16 07:35:00,
2013-03-16 02:40:00,63.5,45.6,29.70,South,190,13.0,13.0,52,0.00,,---,0.00,VWS V14.00,2013-03-16 07:40:00,
2013-03-16 02:45:00,63.4,45.5,29.70,South,186,9.0,13.0,52,0.00,,---,0.00,VWS V14.00,2013-03-16 07:45:00,
2013-03-16 02:50:00,63.4,45.5,29.70,SSW,192,12.0,13.0,52,0.00,,---,0.00,VWS V14.00,2013-03-16 07:50:00,
2013-03-16 02:55:00,63.2,45.8,29.70,South,188,11.0,14.0,53,0.00,,---,0.00,VWS V14.00,2013-03-16 07:55:00,
2013-03-16 03:00:00,63.0,45.6,29.70,South,185,14.0,14.0,53,0.00,,---,0.00,VWS V14.00,2013-03-16 08:00:00,
2013-03-16 03:05:00,62.9,45.5,29.69,South,191,13.0,13.0,53,0.00,,---,0.00,VWS V14.00,2013-03-16 08:05:00,
2013-03-16 03:10:00,62.9,45.5,29.69,South,185,9.0,13.0,53,0.00,,---,0.00,VWS V14.00,2013-03-16 08:10:00,
2013-03-16 03:15:00,62.8,45.4,29.69,South,189,12.0,12.0,53,0.00,,---,0.00,VWS V14.00,2013-03-16 08:15:00,
2013-03-16 03:20:00,62.7,45.3,29.69,South,188,9.0,14.0,53,0.00,,---,0.00,VWS V14.00,2013-03-16 08:20:00,
2013-03-16 03:25:00,62.6,45.2,29.69,South,185,9.0,14.0,53,0.00,,---,0.00,VWS V14.00,2013-03-16 08:25:00,
2013-03-16 03:30:00,62.5,45.2,29.69,South,185,10.0,16.0,53,0.00,,---,0.00,VWS V14.00,2013-03-16 08:30:00,
2013-03-16 03:35:00,62.4,45.1,29.69,South,188,9.0,14.0,53,0.00,,---,0.00,VWS V14.00,2013-03-16 08:35:00,
2013-03-16 03:40:00,62.3,45.0,29.69,South,180,14.0,14.0,53,0.00,,---,0.00,VWS V14.00,2013-03-16 08:40:00,
2013-03-16 03:45:00,62.2,45.4,29.69,South,191,11.0,12.0,54,0.00,,---,0.00,VWS V14.00,2013-03-16 08:45:00,
2013-03-16 03:50:00,62.0,45.2,29.69,South,176,7.0,12.0,54,0.00,,---,0.00,VWS V14.00,2013-03-16 08:50:00,
2013-03-16 03:55:00,61.8,45.0,29.69,SSW,194,6.0,11.0,54,0.00,,---,0.00,VWS V14.00,2013-03-16 08:55:00,
2013-03-16 04:00:00,61.6,44.8,29.69,South,188,10.0,12.0,54,0.00,,---,0.00,VWS V14.00,2013-03-16 09:00:00,
2013-03-16 04:05:00,61.5,44.7,29.69,South,182,10.0,11.0,54,0.00,,---,0.00,VWS V14.00,2013-03-16 09:05:00,
2013-03-16 04:10:00,61.4,45.1,29.69,South,190,9.0,14.0,55,0.00,,---,0.00,VWS V14.00,2013-03-16 09:10:00,
2013-03-16 04:15:00,61.4,45.1,29.68,South,189,8.0,12.0,55,0.00,,---,0.00,VWS V14.00,2013-03-16 09:15:00,
2013-03-16 04:20:00,61.4,45.1,29.68,South,183,9.0,13.0,55,0.00,,---,0.00,VWS V14.00,2013-03-16 09:20:00,
2013-03-16 04:24:00,61.4,44.6,29.68,SSW,192,10.0,13.0,54,0.00,,---,0.00,VWS V14.00,2013-03-16 09:24:00,
2013-03-16 04:25:00,61.4,44.6,29.68,South,186,8.0,15.0,54,0.00,,---,0.00,VWS V14.00,2013-03-16 09:25:00,
2013-03-16 04:29:00,61.4,44.6,29.68,South,189,7.0,10.0,54,0.00,,---,0.00,VWS V14.00,2013-03-16 09:29:00,
2013-03-16 04:30:00,61.4,44.6,29.68,South,190,7.0,14.0,54,0.00,,---,0.00,VWS V14.00,2013-03-16 09:30:00,
2013-03-16 04:34:00,61.4,44.6,29.68,South,183,10.0,11.0,54,0.00,,---,0.00,VWS V14.00,2013-03-16 09:34:00,
2013-03-16 04:35:00,61.4,44.6,29.68,South,184,10.0,14.0,54,0.00,,---,0.00,VWS V14.00,2013-03-16 09:35:00,
2013-03-16 04:39:00,61.3,45.0,29.68,South,185,11.0,11.0,55,0.00,,---,0.00,VWS V14.00,2013-03-16 09:39:00,
2013-03-16 04:40:00,61.3,45.0,29.68,South,187,7.0,13.0,55,0.00,,---,0.00,VWS V14.00,2013-03-16 09:40:00,
2013-03-16 04:44:00,61.3,45.0,29.68,South,189,7.0,9.0,55,0.00,,---,0.00,VWS V14.00,2013-03-16 09:44:00,
2013-03-16 04:45:00,61.3,45.0,29.68,South,190,9.0,16.0,55,0.00,,---,0.00,VWS V14.00,2013-03-16 09:45:00,
2013-03-16 04:49:00,61.2,44.9,29.68,South,188,7.0,10.0,55,0.00,,---,0.00,VWS V14.00,2013-03-16 09:49:00,
2013-03-16 04:50:00,61.2,44.9,29.68,South,190,9.0,15.0,55,0.00,,---,0.00,VWS V14.00,2013-03-16 09:50:00,
2013-03-16 04:54:00,61.2,44.9,29.68,South,191,11.0,14.0,55,0.00,,---,0.00,VWS V14.00,2013-03-16 09:54:00,
2013-03-16 04:59:00,61.1,44.8,29.68,South,189,10.0,12.0,55,0.00,,---,0.00,VWS V14.00,2013-03-16 09:59:00,
2013-03-16 05:00:00,61.2,44.9,29.68,South,190,8.0,14.0,55,0.00,,---,0.00,VWS V14.00,2013-03-16 10:00:00,
2013-03-16 05:04:00,61.2,44.9,29.67,SSW,192,14.0,15.0,55,0.00,,---,0.00,VWS V14.00,2013-03-16 10:04:00,
2013-03-16 05:05:00,61.2,44.9,29.67,South,186,13.0,17.0,55,0.00,,---,0.00,VWS V14.00,2013-03-16 10:05:00,
2013-03-16 05:09:00,61.3,44.5,29.67,South,188,10.0,16.0,54,0.00,,---,0.00,VWS V14.00,2013-03-16 10:09:00,
2013-03-16 05:10:00,61.3,44.5,29.68,South,189,13.0,16.0,54,0.00,,---,0.00,VWS V14.00,2013-03-16 10:10:00,
2013-03-16 05:14:00,61.4,44.6,29.68,South,189,14.0,16.0,54,0.00,,---,0.00,VWS V14.00,2013-03-16 10:14:00,
2013-03-16 05:15:00,61.5,44.7,29.68,South,182,15.0,18.0,54,0.00,,---,0.00,VWS V14.00,2013-03-16 10:15:00,
2013-03-16 05:19:00,61.6,44.8,29.68,SSW,194,15.0,16.0,54,0.00,,---,0.00,VWS V14.00,2013-03-16 10:19:00,
2013-03-16 05:20:00,61.6,44.8,29.68,South,186,11.0,17.0,54,0.00,,---,0.00,VWS V14.00,2013-03-16 10:20:00,
2013-03-16 05:24:00,61.6,44.8,29.68,South,186,12.0,13.0,54,0.00,,---,0.00,VWS V14.00,2013-03-16 10:24:00,
2013-03-16 05:25:00,61.7,44.9,29.68,South,188,11.0,17.0,54,0.00,,---,0.00,VWS V14.00,2013-03-16 10:25:00,
2013-03-16 05:29:00,61.6,44.8,29.68,SSW,196,14.0,15.0,54,0.00,,---,0.00,VWS V14.00,2013-03-16 10:29:00,
2013-03-16 05:30:00,61.6,44.8,29.68,South,190,14.0,16.0,54,0.00,,---,0.00,VWS V14.00,2013-03-16 10:30:00,
2013-03-16 05:34:00,61.5,44.7,29.68,South,190,13.0,13.0,54,0.00,,---,0.00,VWS V14.00,2013-03-16 10:34:00,
2013-03-16 05:35:00,61.5,44.7,29.68,South,191,13.0,15.0,54,0.00,,---,0.00,VWS V14.00,2013-03-16 10:35:00,
2013-03-16 05:39:00,61.4,44.6,29.68,South,188,11.0,13.0,54,0.00,,---,0.00,VWS V14.00,2013-03-16 10:39:00,
2013-03-16 05:40:00,61.5,44.7,29.68,South,184,9.0,18.0,54,0.00,,---,0.00,VWS V14.00,2013-03-16 10:40:00,
2013-03-16 05:44:00,61.4,44.6,29.67,South,184,11.0,12.0,54,0.00,,---,0.00,VWS V14.00,2013-03-16 10:44:00,
2013-03-16 05:45:00,61.4,44.6,29.67,South,178,10.0,17.0,54,0.00,,---,0.00,VWS V14.00,2013-03-16 10:45:00,
2013-03-16 05:49:00,61.4,44.6,29.67,South,181,11.0,13.0,54,0.00,,---,0.00,VWS V14.00,2013-03-16 10:49:00,
2013-03-16 05:50:00,61.4,44.6,29.67,South,184,12.0,17.0,54,0.00,,---,0.00,VWS V14.00,2013-03-16 10:50:00,
2013-03-16 05:54:00,61.4,44.6,29.67,South,182,13.0,16.0,54,0.00,,---,0.00,VWS V14.00,2013-03-16 10:54:00,
2013-03-16 05:55:00,61.4,44.6,29.67,SSW,193,12.0,18.0,54,0.00,,---,0.00,VWS V14.00,2013-03-16 10:55:00,
2013-03-16 05:59:00,61.4,44.6,29.68,South,187,10.0,12.0,54,0.00,,---,0.00,VWS V14.00,2013-03-16 10:59:00,
2013-03-16 06:00:00,61.3,44.5,29.68,South,188,11.0,17.0,54,0.00,,---,0.00,VWS V14.00,2013-03-16 11:00:00,
2013-03-16 06:04:00,61.3,44.5,29.68,South,177,11.0,13.0,54,0.00,,---,0.00,VWS V14.00,2013-03-16 11:04:00,
2013-03-16 06:05:00,61.3,44.5,29.68,South,185,12.0,18.0,54,0.00,,---,0.00,VWS V14.00,2013-03-16 11:05:00,
2013-03-16 06:09:00,61.3,44.5,29.68,South,180,13.0,13.0,54,0.00,,---,0.00,VWS V14.00,2013-03-16 11:09:00,
2013-03-16 06:10:00,61.3,44.5,29.68,South,187,9.0,15.0,54,0.00,,---,0.00,VWS V14.00,2013-03-16 11:10:00,
2013-03-16 06:14:00,61.2,44.4,29.68,SSW,196,9.0,12.0,54,0.00,,---,0.00,VWS V14.00,2013-03-16 11:14:00,
2013-03-16 06:15:00,61.2,44.4,29.68,SSW,198,12.0,16.0,54,0.00,,---,0.00,VWS V14.00,2013-03-16 11:15:00,
2013-03-16 06:19:00,61.1,44.8,29.68,South,184,10.0,12.0,55,0.00,,---,0.00,VWS V14.00,2013-03-16 11:19:00,
2013-03-16 06:20:00,61.1,44.8,29.68,SSW,192,5.0,12.0,55,0.00,,---,0.00,VWS V14.00,2013-03-16 11:20:00,
2013-03-16 06:24:00,60.8,44.5,29.68,South,182,5.0,10.0,55,0.00,,---,0.00,VWS V14.00,2013-03-16 11:24:00,
2013-03-16 06:25:00,60.9,44.6,29.68,South,182,6.0,15.0,55,0.00,,---,0.00,VWS V14.00,2013-03-16 11:25:00,
2013-03-16 06:29:00,60.7,44.5,29.68,South,182,11.0,14.0,55,0.00,,---,0.00,VWS V14.00,2013-03-16 11:29:00,
2013-03-16 06:30:00,60.7,44.5,29.68,South,183,12.0,16.0,55,0.00,,---,0.00,VWS V14.00,2013-03-16 11:30:00,
2013-03-16 06:34:00,60.5,44.7,29.68,South,175,10.0,10.0,56,0.00,,---,0.00,VWS V14.00,2013-03-16 11:34:00,
2013-03-16 06:35:00,60.5,44.7,29.68,South,176,9.0,14.0,56,0.00,,---,0.00,VWS V14.00,2013-03-16 11:35:00,
2013-03-16 06:39:00,60.4,44.7,29.68,South,178,13.0,15.0,56,0.00,,---,0.00,VWS V14.00,2013-03-16 11:39:00,
2013-03-16 06:40:00,60.4,44.7,29.68,South,174,10.0,18.0,56,0.00,,---,0.00,VWS V14.00,2013-03-16 11:40:00,
2013-03-16 06:44:00,60.4,44.7,29.68,South,182,11.0,13.0,56,0.00,,---,0.00,VWS V14.00,2013-03-16 11:44:00,
2013-03-16 06:45:00,60.4,44.7,29.68,South,177,13.0,19.0,56,0.00,,---,0.00,VWS V14.00,2013-03-16 11:45:00,
2013-03-16 06:49:00,60.4,45.1,29.68,South,182,13.0,14.0,57,0.00,,---,0.00,VWS V14.00,2013-03-16 11:49:00,
2013-03-16 06:50:00,60.4,45.1,29.68,South,172,12.0,18.0,57,0.00,,---,0.00,VWS V14.00,2013-03-16 11:50:00,
2013-03-16 06:54:00,60.3,45.0,29.69,SSE,163,12.0,12.0,57,0.00,,---,0.00,VWS V14.00,2013-03-16 11:54:00,
2013-03-16 06:55:00,60.3,45.0,29.69,South,183,10.0,16.0,57,0.00,,---,0.00,VWS V14.00,2013-03-16 11:55:00,
2013-03-16 06:59:00,60.2,44.9,29.69,South,190,13.0,15.0,57,0.00,,---,0.00,VWS V14.00,2013-03-16 11:59:00,
2013-03-16 07:00:00,60.2,44.9,29.69,South,175,12.0,16.0,57,0.00,,---,0.00,VWS V14.00,2013-03-16 12:00:00,
2013-03-16 07:04:00,60.2,45.4,29.69,South,180,10.0,12.0,58,0.00,,---,0.00,VWS V14.00,2013-03-16 12:04:00,
2013-03-16 07:05:00,60.2,45.4,29.69,South,190,11.0,15.0,58,0.00,,---,0.00,VWS V14.00,2013-03-16 12:05:00,
2013-03-16 07:09:00,60.0,45.2,29.69,South,174,10.0,15.0,58,0.00,,---,0.00,VWS V14.00,2013-03-16 12:09:00,
2013-03-16 07:10:00,60.1,45.3,29.69,South,180,14.0,15.0,58,0.00,,---,0.00,VWS V14.00,2013-03-16 12:10:00,
2013-03-16 07:14:00,60.0,45.7,29.70,South,171,12.0,12.0,59,0.00,,---,0.00,VWS V14.00,2013-03-16 12:14:00,
2013-03-16 07:15:00,60.0,45.7,29.70,South,181,6.0,15.0,59,0.00,,---,0.00,VWS V14.00,2013-03-16 12:15:00,
2013-03-16 07:19:00,59.9,45.5,29.70,South,186,16.0,16.0,59,0.00,,---,0.00,VWS V14.00,2013-03-16 12:19:00,
2013-03-16 07:20:00,59.9,45.5,29.70,South,185,11.0,15.0,59,0.00,,---,0.00,VWS V14.00,2013-03-16 12:20:00,
2013-03-16 07:24:00,59.8,45.9,29.70,South,188,9.0,11.0,60,0.00,,---,0.00,VWS V14.00,2013-03-16 12:24:00,
2013-03-16 07:25:00,59.8,45.9,29.70,South,188,6.0,16.0,60,0.00,,---,0.00,VWS V14.00,2013-03-16 12:25:00,
2013-03-16 07:29:00,59.6,45.7,29.70,South,188,6.0,11.0,60,0.00,,---,0.00,VWS V14.00,2013-03-16 12:29:00,
2013-03-16 07:30:00,59.6,45.7,29.70,SSW,194,7.0,12.0,60,0.00,,---,0.00,VWS V14.00,2013-03-16 12:30:00,
2013-03-16 07:34:00,59.5,46.1,29.71,South,188,9.0,11.0,61,0.00,,---,0.00,VWS V14.00,2013-03-16 12:34:00,
2013-03-16 07:35:00,59.5,46.1,29.71,South,189,11.0,14.0,61,0.00,,---,0.00,VWS V14.00,2013-03-16 12:35:00,
2013-03-16 07:39:00,59.3,46.3,29.71,South,184,9.0,11.0,62,0.00,,---,0.00,VWS V14.00,2013-03-16 12:39:00,
2013-03-16 07:40:00,59.3,46.3,29.71,South,186,10.0,14.0,62,0.00,,---,0.00,VWS V14.00,2013-03-16 12:40:00,
2013-03-16 07:44:00,59.0,46.4,29.72,South,188,6.0,8.0,63,0.00,,---,0.00,VWS V14.00,2013-03-16 12:44:00,
2013-03-16 07:45:00,59.1,46.1,29.72,South,188,8.0,11.0,62,0.00,,---,0.00,VWS V14.00,2013-03-16 12:45:00,
2013-03-16 07:49:00,59.0,46.4,29.72,South,189,5.0,5.0,63,0.00,,---,0.00,VWS V14.00,2013-03-16 12:49:00,
2013-03-16 07:50:00,59.0,46.4,29.72,South,189,4.0,9.0,63,0.00,,---,0.00,VWS V14.00,2013-03-16 12:50:00,
2013-03-16 07:54:00,59.0,46.4,29.72,South,189,3.0,5.0,63,0.00,,---,0.00,VWS V14.00,2013-03-16 12:54:00,
2013-03-16 07:55:00,59.0,46.4,29.72,South,189,5.0,7.0,63,0.00,,---,0.00,VWS V14.00,2013-03-16 12:55:00,
2013-03-16 07:59:00,59.0,46.8,29.72,South,189,0.0,0.0,64,0.00,,---,0.00,VWS V14.00,2013-03-16 12:59:00,
2013-03-16 08:00:00,59.0,46.8,29.72,South,189,0.0,7.0,64,0.00,,---,0.00,VWS V14.00,2013-03-16 13:00:00,
2013-03-16 08:04:00,59.0,46.8,29.73,South,189,0.0,0.0,64,0.00,,---,0.00,VWS V14.00,2013-03-16 13:04:00,
2013-03-16 08:05:00,59.0,46.8,29.73,South,189,0.0,0.0,64,0.00,,---,0.00,VWS V14.00,2013-03-16 13:05:00,
2013-03-16 08:09:00,59.0,46.8,29.73,SSW,194,0.0,0.0,64,0.00,,---,0.00,VWS V14.00,2013-03-16 13:09:00,
2013-03-16 08:10:00,59.0,46.8,29.73,SSW,194,0.0,5.0,64,0.00,,---,0.00,VWS V14.00,2013-03-16 13:10:00,
2013-03-16 08:14:00,59.2,47.5,29.73,SSW,194,2.0,3.0,65,0.00,,---,0.00,VWS V14.00,2013-03-16 13:14:00,
2013-03-16 08:15:00,59.1,47.4,29.73,SSW,194,2.0,2.0,65,0.00,,---,0.00,VWS V14.00,2013-03-16 13:15:00,
2013-03-16 08:19:00,59.4,47.7,29.73,SSW,194,0.0,0.0,65,0.00,,---,0.00,VWS V14.00,2013-03-16 13:19:00,
2013-03-16 08:20:00,59.4,47.7,29.73,SSW,194,0.0,3.0,65,0.00,,---,0.00,VWS V14.00,2013-03-16 13:20:00,
2013-03-16 08:24:00,59.7,47.9,29.74,SSW,194,0.0,0.0,65,0.00,,---,0.00,VWS V14.00,2013-03-16 13:24:00,
2013-03-16 08:25:00,59.7,47.9,29.74,SSW,194,0.0,0.0,65,0.00,,---,0.00,VWS V14.00,2013-03-16 13:25:00,
2013-03-16 08:29:00,60.0,47.8,29.74,SSW,194,0.0,0.0,64,0.00,,---,0.00,VWS V14.00,2013-03-16 13:29:00,
2013-03-16 08:30:00,60.0,47.8,29.74,SSW,194,0.0,0.0,64,0.00,,---,0.00,VWS V14.00,2013-03-16 13:30:00,
2013-03-16 08:34:00,60.3,48.1,29.74,SSW,194,0.0,0.0,64,0.00,,---,0.00,VWS V14.00,2013-03-16 13:34:00,
2013-03-16 08:35:00,60.2,48.0,29.74,SSW,194,0.0,0.0,64,0.00,,---,0.00,VWS V14.00,2013-03-16 13:35:00,
2013-03-16 08:39:00,60.5,47.9,29.74,SSW,194,4.0,5.0,63,0.00,,---,0.00,VWS V14.00,2013-03-16 13:39:00,
2013-03-16 08:40:00,60.5,47.9,29.74,SSW,194,3.0,5.0,63,0.00,,---,0.00,VWS V14.00,2013-03-16 13:40:00,
2013-03-16 08:44:00,60.6,48.0,29.75,SSW,194,0.0,0.0,63,0.00,,---,0.00,VWS V14.00,2013-03-16 13:44:00,
2013-03-16 08:45:00,60.5,47.9,29.75,SSW,194,0.0,5.0,63,0.00,,---,0.00,VWS V14.00,2013-03-16 13:45:00,
2013-03-16 08:49:00,60.6,48.0,29.75,SSW,194,0.0,0.0,63,0.00,,---,0.00,VWS V14.00,2013-03-16 13:49:00,
2013-03-16 08:50:00,60.6,48.0,29.75,SSW,194,0.0,0.0,63,0.00,,---,0.00,VWS V14.00,2013-03-16 13:50:00,
2013-03-16 08:54:00,60.5,48.3,29.75,SSW,194,0.0,0.0,64,0.00,,---,0.00,VWS V14.00,2013-03-16 13:54:00,
2013-03-16 08:55:00,60.5,48.3,29.75,SSW,194,0.0,0.0,64,0.00,,---,0.00,VWS V14.00,2013-03-16 13:55:00,
2013-03-16 08:59:00,60.5,48.3,29.75,SSW,194,0.0,0.0,64,0.00,,---,0.00,VWS V14.00,2013-03-16 13:59:00,
2013-03-16 09:00:00,60.5,48.3,29.75,SSW,194,0.0,0.0,64,0.00,,---,0.00,VWS V14.00,2013-03-16 14:00:00,
2013-03-16 09:04:00,60.9,48.7,29.75,SSW,194,0.0,1.0,64,0.00,,---,0.00,VWS V14.00,2013-03-16 14:04:00,
2013-03-16 09:05:00,60.9,48.7,29.75,SSW,194,0.0,4.0,64,0.00,,---,0.00,VWS V14.00,2013-03-16 14:05:00,
2013-03-16 09:09:00,61.3,48.6,29.75,SSW,194,0.0,0.0,63,0.00,,---,0.00,VWS V14.00,2013-03-16 14:09:00,
2013-03-16 09:10:00,61.2,48.5,29.75,SSW,194,0.0,1.0,63,0.00,,---,0.00,VWS V14.00,2013-03-16 14:10:00,
2013-03-16 09:14:00,61.7,49.0,29.75,SSW,194,0.0,0.0,63,0.00,,---,0.00,VWS V14.00,2013-03-16 14:14:00,
2013-03-16 09:15:00,61.7,49.0,29.75,SSW,194,0.0,0.0,63,0.00,,---,0.00,VWS V14.00,2013-03-16 14:15:00,
2013-03-16 09:19:00,62.3,48.7,29.75,SSW,194,0.0,0.0,61,0.00,,---,0.00,VWS V14.00,2013-03-16 14:19:00,
2013-03-16 09:20:00,62.3,49.1,29.75,SSW,194,0.0,0.0,62,0.00,,---,0.00,VWS V14.00,2013-03-16 14:20:00,
2013-03-16 09:24:00,62.9,48.8,29.75,SSW,194,4.0,5.0,60,0.00,,---,0.00,VWS V14.00,2013-03-16 14:24:00,
2013-03-16 09:25:00,62.9,49.3,29.75,SSW,194,3.0,5.0,61,0.00,,---,0.00,VWS V14.00,2013-03-16 14:25:00,
2013-03-16 09:29:00,63.5,49.4,29.75,South,187,3.0,4.0,60,0.00,,---,0.00,VWS V14.00,2013-03-16 14:29:00,
2013-03-16 09:30:00,63.5,49.4,29.75,South,187,3.0,10.0,60,0.00,,---,0.00,VWS V14.00,2013-03-16 14:30:00,
2013-03-16 09:34:00,64.0,49.4,29.76,SSW,195,0.0,0.0,59,0.00,,---,0.00,VWS V14.00,2013-03-16 14:34:00,
2013-03-16 09:35:00,64.0,49.4,29.76,SSW,195,0.0,9.0,59,0.00,,---,0.00,VWS V14.00,2013-03-16 14:35:00,
2013-03-16 09:39:00,64.4,49.8,29.76,SSW,193,2.0,4.0,59,0.00,,---,0.00,VWS V14.00,2013-03-16 14:39:00,
2013-03-16 09:40:00,64.4,49.8,29.76,SSW,193,4.0,10.0,59,0.00,,---,0.00,VWS V14.00,2013-03-16 14:40:00,
2013-03-16 09:44:00,64.7,49.6,29.75,SSE,150,6.0,7.0,58,0.00,,---,0.00,VWS V14.00,2013-03-16 14:44:00,
2013-03-16 09:45:00,64.7,49.6,29.75,SSE,150,4.0,16.0,58,0.00,,---,0.00,VWS V14.00,2013-03-16 14:45:00,
2013-03-16 09:49:00,64.8,49.7,29.75,SSE,148,4.0,4.0,58,0.00,,---,0.00,VWS V14.00,2013-03-16 14:49:00,
2013-03-16 09:50:00,64.8,49.7,29.75,SSE,148,4.0,10.0,58,0.00,,---,0.00,VWS V14.00,2013-03-16 14:50:00,
2013-03-16 09:54:00,64.9,49.8,29.76,SSE,148,0.0,0.0,58,0.00,,---,0.00,VWS V14.00,2013-03-16 14:54:00,
2013-03-16 09:55:00,64.9,49.8,29.76,SSE,148,0.0,6.0,58,0.00,,---,0.00,VWS V14.00,2013-03-16 14:55:00,
2013-03-16 09:59:00,65.1,49.5,29.76,SSE,148,0.0,0.0,57,0.00,,---,0.00,VWS V14.00,2013-03-16 14:59:00,
2013-03-16 10:00:00,65.0,49.4,29.76,SSE,148,0.0,6.0,57,0.00,,---,0.00,VWS V14.00,2013-03-16 15:00:00,
2013-03-16 10:04:00,65.3,50.2,29.76,SSE,154,3.0,4.0,58,0.00,,---,0.00,VWS V14.00,2013-03-16 15:04:00,
2013-03-16 10:05:00,65.3,50.2,29.76,SSE,154,4.0,9.0,58,0.00,,---,0.00,VWS V14.00,2013-03-16 15:05:00,
2013-03-16 10:09:00,65.5,49.4,29.76,South,169,0.0,0.0,56,0.00,,---,0.00,VWS V14.00,2013-03-16 15:09:00,
2013-03-16 10:10:00,65.5,49.4,29.76,South,169,0.0,7.0,56,0.00,,---,0.00,VWS V14.00,2013-03-16 15:10:00,
2013-03-16 10:14:00,65.8,50.2,29.76,South,169,0.0,0.0,57,0.00,,---,0.00,VWS V14.00,2013-03-16 15:14:00,
2013-03-16 10:15:00,65.8,50.2,29.76,South,169,0.0,4.0,57,0.00,,---,0.00,VWS V14.00,2013-03-16 15:15:00,
2013-03-16 10:19:00,66.1,50.0,29.76,South,169,7.0,7.0,56,0.00,,---,0.00,VWS V14.00,2013-03-16 15:19:00,
2013-03-16 10:20:00,66.1,50.0,29.76,South,169,3.0,5.0,56,0.00,,---,0.00,VWS V14.00,2013-03-16 15:20:00,
2013-03-16 10:24:00,66.5,50.3,29.76,SSW,193,6.0,9.0,56,0.00,,---,0.00,VWS V14.00,2013-03-16 15:24:00,
2013-03-16 10:25:00,66.5,50.3,29.76,SSW,192,8.0,13.0,56,0.00,,---,0.00,VWS V14.00,2013-03-16 15:25:00,
2013-03-16 10:29:00,66.7,50.0,29.76,SW,215,7.0,10.0,55,0.00,,---,0.00,VWS V14.00,2013-03-16 15:29:00,
2013-03-16 10:30:00,66.7,50.0,29.76,SW,215,10.0,11.0,55,0.00,,---,0.00,VWS V14.00,2013-03-16 15:30:00,
2013-03-16 10:34:00,66.8,50.6,29.76,SW,227,6.0,7.0,56,0.00,,---,0.00,VWS V14.00,2013-03-16 15:34:00,
2013-03-16 10:35:00,66.8,50.6,29.76,SW,227,6.0,10.0,56,0.00,,---,0.00,VWS V14.00,2013-03-16 15:35:00,
2013-03-16 10:39:00,67.0,50.3,29.76,SSW,209,4.0,5.0,55,0.00,,---,0.00,VWS V14.00,2013-03-16 15:39:00,
2013-03-16 10:40:00,66.9,50.2,29.76,SSW,209,4.0,11.0,55,0.00,,---,0.00,VWS V14.00,2013-03-16 15:40:00,
2013-03-16 10:44:00,67.2,50.5,29.76,SSW,209,0.0,1.0,55,0.00,,---,0.00,VWS V14.00,2013-03-16 15:44:00,
2013-03-16 10:45:00,67.2,50.5,29.76,SSW,209,1.0,6.0,55,0.00,,---,0.00,VWS V14.00,2013-03-16 15:45:00,
2013-03-16 10:49:00,67.4,50.2,29.76,SSW,210,6.0,6.0,54,0.00,,---,0.00,VWS V14.00,2013-03-16 15:49:00,
2013-03-16 10:50:00,67.4,50.2,29.76,SSW,210,6.0,7.0,54,0.00,,---,0.00,VWS V14.00,2013-03-16 15:50:00,
2013-03-16 10:54:00,67.7,50.5,29.76,South,172,9.0,9.0,54,0.00,,---,0.00,VWS V14.00,2013-03-16 15:54:00,
2013-03-16 10:55:00,67.7,50.5,29.76,South,172,8.0,12.0,54,0.00,,---,0.00,VWS V14.00,2013-03-16 15:55:00,
2013-03-16 10:59:00,68.0,50.8,29.76,SSW,205,7.0,9.0,54,0.00,,---,0.00,VWS V14.00,2013-03-16 15:59:00,
2013-03-16 11:00:00,68.0,50.8,29.76,SSW,204,9.0,12.0,54,0.00,,---,0.00,VWS V14.00,2013-03-16 16:00:00,
2013-03-16 11:04:00,68.2,50.4,29.77,SSW,201,3.0,3.0,53,0.00,,---,0.00,VWS V14.00,2013-03-16 16:04:00,
2013-03-16 11:05:00,68.2,50.4,29.77,SSW,201,2.0,12.0,53,0.00,,---,0.00,VWS V14.00,2013-03-16 16:05:00,
2013-03-16 11:09:00,68.5,50.7,29.76,South,187,7.0,7.0,53,0.00,,---,0.00,VWS V14.00,2013-03-16 16:09:00,
2013-03-16 11:10:00,68.5,50.7,29.76,South,190,6.0,6.0,53,0.00,,---,0.00,VWS V14.00,2013-03-16 16:10:00,
2013-03-16 11:14:00,68.7,50.9,29.76,SSE,163,5.0,5.0,53,0.00,,---,0.00,VWS V14.00,2013-03-16 16:14:00,
2013-03-16 11:15:00,68.7,50.9,29.76,SSE,163,5.0,10.0,53,0.00,,---,0.00,VWS V14.00,2013-03-16 16:15:00,
2013-03-16 11:19:00,68.9,50.6,29.76,South,171,6.0,6.0,52,0.00,,---,0.00,VWS V14.00,2013-03-16 16:19:00,
2013-03-16 11:20:00,68.9,50.6,29.76,South,171,5.0,9.0,52,0.00,,---,0.00,VWS V14.00,2013-03-16 16:20:00,
2013-03-16 11:24:00,69.1,50.8,29.76,South,171,1.0,2.0,52,0.00,,---,0.00,VWS V14.00,2013-03-16 16:24:00,
2013-03-16 11:25:00,69.1,50.8,29.76,South,172,1.0,6.0,52,0.00,,---,0.00,VWS V14.00,2013-03-16 16:25:00,
2013-03-16 11:29:00,69.4,51.0,29.76,South,181,3.0,3.0,52,0.00,,---,0.00,VWS V14.00,2013-03-16 16:29:00,
2013-03-16 11:30:00,69.4,51.0,29.76,South,181,3.0,12.0,52,0.00,,---,0.00,VWS V14.00,2013-03-16 16:30:00,
2013-03-16 11:34:00,69.8,50.9,29.76,South,184,5.0,6.0,51,0.00,,---,0.00,VWS V14.00,2013-03-16 16:34:00,
2013-03-16 11:35:00,69.8,51.4,29.76,South,184,6.0,7.0,52,0.00,,---,0.00,VWS V14.00,2013-03-16 16:35:00,
2013-03-16 11:39:00,70.0,50.5,29.75,South,186,6.0,10.0,50,0.00,,---,0.00,VWS V14.00,2013-03-16 16:39:00,
2013-03-16 11:40:00,70.0,50.5,29.75,South,184,10.0,10.0,50,0.00,,---,0.00,VWS V14.00,2013-03-16 16:40:00,
2013-03-16 11:44:00,70.1,51.2,29.75,SSW,200,7.0,7.0,51,0.00,,---,0.00,VWS V14.00,2013-03-16 16:44:00,
2013-03-16 11:45:00,70.1,51.2,29.75,SSW,200,5.0,10.0,51,0.00,,---,0.00,VWS V14.00,2013-03-16 16:45:00,
2013-03-16 11:49:00,70.1,50.6,29.75,SSW,205,3.0,3.0,50,0.00,,---,0.00,VWS V14.00,2013-03-16 16:49:00,
2013-03-16 11:50:00,70.1,50.6,29.75,SSW,205,3.0,10.0,50,0.00,,---,0.00,VWS V14.00,2013-03-16 16:50:00,
2013-03-16 11:54:00,70.3,51.3,29.75,SSW,205,4.0,5.0,51,0.00,,---,0.00,VWS V14.00,2013-03-16 16:54:00,
2013-03-16 11:55:00,70.3,51.3,29.75,SSW,205,5.0,6.0,51,0.00,,---,0.00,VWS V14.00,2013-03-16 16:55:00,
2013-03-16 11:59:00,70.6,51.1,29.75,SSW,193,2.0,2.0,50,0.00,,---,0.00,VWS V14.00,2013-03-16 16:59:00,
2013-03-16 12:00:00,70.6,51.1,29.75,SSW,193,2.0,6.0,50,0.00,,---,0.00,VWS V14.00,2013-03-16 17:00:00,
2013-03-16 12:04:00,71.0,51.5,29.76,South,184,0.0,0.0,50,0.00,,---,0.00,VWS V14.00,2013-03-16 17:04:00,
2013-03-16 12:05:00,71.0,51.4,29.75,South,184,0.0,6.0,50,0.00,,---,0.00,VWS V14.00,2013-03-16 17:05:00,
2013-03-16 12:09:00,71.4,51.3,29.75,South,184,1.0,1.0,49,0.00,,---,0.00,VWS V14.00,2013-03-16 17:09:00,
2013-03-16 12:10:00,71.4,51.3,29.75,South,184,0.0,7.0,49,0.00,,---,0.00,VWS V14.00,2013-03-16 17:10:00,
2013-03-16 12:14:00,71.8,51.6,29.75,South,184,5.0,5.0,49,0.00,,---,0.00,VWS V14.00,2013-03-16 17:14:00,
2013-03-16 12:15:00,71.8,51.6,29.75,South,184,5.0,9.0,49,0.00,,---,0.00,VWS V14.00,2013-03-16 17:15:00,
2013-03-16 12:19:00,71.9,51.2,29.75,South,182,4.0,4.0,48,0.00,,---,0.00,VWS V14.00,2013-03-16 17:19:00,
2013-03-16 12:20:00,71.9,51.2,29.75,South,182,4.0,10.0,48,0.00,,---,0.00,VWS V14.00,2013-03-16 17:20:00,
2013-03-16 12:24:00,72.0,51.3,29.75,South,172,1.0,8.0,48,0.00,,---,0.00,VWS V14.00,2013-03-16 17:24:00,
2013-03-16 12:25:00,72.0,51.3,29.75,South,172,1.0,8.0,48,0.00,,---,0.00,VWS V14.00,2013-03-16 17:25:00,
2013-03-16 12:29:00,71.8,51.1,29.75,South,184,0.0,7.0,48,0.00,,---,0.00,VWS V14.00,2013-03-16 17:29:00,
2013-03-16 12:30:00,71.8,51.1,29.75,South,184,0.0,7.0,48,0.00,,---,0.00,VWS V14.00,2013-03-16 17:30:00,
2013-03-16 12:34:00,71.9,51.2,29.75,SSW,198,2.0,6.0,48,0.00,,---,0.00,VWS V14.00,2013-03-16 17:34:00,
2013-03-16 12:35:00,71.9,51.2,29.75,SSW,198,2.0,6.0,48,0.00,,---,0.00,VWS V14.00,2013-03-16 17:35:00,
2013-03-16 12:39:00,72.0,51.3,29.75,SSW,198,0.0,6.0,48,0.00,,---,0.00,VWS V14.00,2013-03-16 17:39:00,
2013-03-16 12:40:00,72.0,51.3,29.75,SSW,198,0.0,6.0,48,0.00,,---,0.00,VWS V14.00,2013-03-16 17:40:00,
2013-03-16 12:44:00,72.7,51.9,29.75,SSW,198,0.0,3.0,48,0.00,,---,0.00,VWS V14.00,2013-03-16 17:44:00,
2013-03-16 12:45:00,72.7,51.9,29.75,SSW,198,0.0,3.0,48,0.00,,---,0.00,VWS V14.00,2013-03-16 17:45:00,
2013-03-16 12:49:00,73.3,51.3,29.75,SSW,211,2.0,13.0,46,0.00,,---,0.00,VWS V14.00,2013-03-16 17:49:00,
2013-03-16 12:50:00,73.3,51.3,29.75,SSW,211,2.0,13.0,46,0.00,,---,0.00,VWS V14.00,2013-03-16 17:50:00,
2013-03-16 12:54:00,73.5,52.1,29.74,SSW,211,6.0,7.0,47,0.00,,---,0.00,VWS V14.00,2013-03-16 17:54:00,
2013-03-16 12:55:00,73.5,52.1,29.74,SSW,211,6.0,7.0,47,0.00,,---,0.00,VWS V14.00,2013-03-16 17:55:00,
2013-03-16 12:59:00,73.3,51.3,29.74,WSW,246,12.0,12.0,46,0.00,,---,0.00,VWS V14.00,2013-03-16 17:59:00,
2013-03-16 13:00:00,73.3,51.3,29.74,WSW,246,12.0,12.0,46,0.00,,---,0.00,VWS V14.00,2013-03-16 18:00:00,
2013-03-16 13:04:00,72.9,52.1,29.74,SW,220,6.0,15.0,48,0.00,,---,0.00,VWS V14.00,2013-03-16 18:04:00,
2013-03-16 13:05:00,72.9,52.1,29.74,SW,220,6.0,15.0,48,0.00,,---,0.00,VWS V14.00,2013-03-16 18:05:00,
2013-03-16 13:09:00,73.0,52.2,29.73,South,187,5.0,9.0,48,0.00,,---,0.00,VWS V14.00,2013-03-16 18:09:00,
2013-03-16 13:10:00,73.0,52.2,29.73,South,187,5.0,9.0,48,0.00,,---,0.00,VWS V14.00,2013-03-16 18:10:00,
2013-03-16 13:14:00,73.3,51.3,29.73,South,185,0.0,6.0,46,0.00,,---,0.00,VWS V14.00,2013-03-16 18:14:00,
2013-03-16 13:15:00,73.3,51.3,29.73,South,185,0.0,6.0,46,0.00,,---,0.00,VWS V14.00,2013-03-16 18:15:00,
2013-03-16 13:19:00,73.4,51.4,29.73,South,186,4.0,5.0,46,0.00,,---,0.00,VWS V14.00,2013-03-16 18:19:00,
2013-03-16 13:20:00,73.4,51.4,29.73,South,186,3.0,5.0,46,0.00,,---,0.00,VWS V14.00,2013-03-16 18:20:00,
2013-03-16 13:24:00,73.5,51.5,29.73,SSW,192,4.0,5.0,46,0.00,,---,0.00,VWS V14.00,2013-03-16 18:24:00,
2013-03-16 13:25:00,73.5,51.5,29.73,SSW,192,4.0,5.0,46,0.00,,---,0.00,VWS V14.00,2013-03-16 18:25:00,
2013-03-16 13:29:00,73.9,51.8,29.73,SSW,192,0.0,4.0,46,0.00,,---,0.00,VWS V14.00,2013-03-16 18:29:00,
2013-03-16 13:30:00,73.9,51.8,29.73,SSW,192,0.0,4.0,46,0.00,,---,0.00,VWS V14.00,2013-03-16 18:30:00,
2013-03-16 13:34:00,74.4,51.7,29.73,SSE,161,1.0,5.0,45,0.00,,---,0.00,VWS V14.00,2013-03-16 18:34:00,
2013-03-16 13:35:00,74.4,51.7,29.73,SSE,161,2.0,5.0,45,0.00,,---,0.00,VWS V14.00,2013-03-16 18:35:00,
2013-03-16 13:39:00,74.3,52.2,29.73,ENE,66,0.0,7.0,46,0.00,,---,0.00,VWS V14.00,2013-03-16 18:39:00,
2013-03-16 13:40:00,74.3,52.2,29.73,ENE,66,0.0,7.0,46,0.00,,---,0.00,VWS V14.00,2013-03-16 18:40:00,
2013-03-16 13:44:00,74.4,52.3,29.73,North,9,9.0,10.0,46,0.00,,---,0.00,VWS V14.00,2013-03-16 18:44:00,
2013-03-16 13:45:00,74.4,52.3,29.73,North,5,6.0,10.0,46,0.00,,---,0.00,VWS V14.00,2013-03-16 18:45:00,
2013-03-16 13:49:00,74.5,52.4,29.72,North,10,3.0,9.0,46,0.00,,---,0.00,VWS V14.00,2013-03-16 18:49:00,
2013-03-16 13:50:00,74.5,52.4,29.72,NNE,12,5.0,9.0,46,0.00,,---,0.00,VWS V14.00,2013-03-16 18:50:00,
2013-03-16 13:54:00,74.7,52.6,29.72,North,11,8.0,8.0,46,0.00,,---,0.00,VWS V14.00,2013-03-16 18:54:00,
2013-03-16 13:55:00,74.7,52.6,29.72,North,11,6.0,9.0,46,0.00,,---,0.00,VWS V14.00,2013-03-16 18:55:00,
2013-03-16 13:59:00,74.6,51.9,29.72,NE,38,2.0,11.0,45,0.00,,---,0.00,VWS V14.00,2013-03-16 18:59:00,
2013-03-16 14:00:00,74.6,51.9,29.72,NE,38,2.0,11.0,45,0.00,,---,0.00,VWS V14.00,2013-03-16 19:00:00,
2013-03-16 14:04:00,74.5,52.4,29.71,NE,45,7.0,11.0,46,0.00,,---,0.00,VWS V14.00,2013-03-16 19:04:00,
2013-03-16 14:05:00,74.5,52.4,29.71,NE,46,5.0,11.0,46,0.00,,---,0.00,VWS V14.00,2013-03-16 19:05:00,
2013-03-16 14:09:00,74.3,52.2,29.71,NE,40,6.0,11.0,46,0.00,,---,0.00,VWS V14.00,2013-03-16 19:09:00,
2013-03-16 14:10:00,74.3,52.2,29.71,NE,40,5.0,11.0,46,0.00,,---,0.00,VWS V14.00,2013-03-16 19:10:00,
2013-03-16 14:14:00,74.2,52.7,29.70,NE,51,11.0,13.0,47,0.00,,---,0.00,VWS V14.00,2013-03-16 19:14:00,
2013-03-16 14:15:00,74.2,52.7,29.70,NE,51,11.0,13.0,47,0.00,,---,0.00,VWS V14.00,2013-03-16 19:15:00,
2013-03-16 14:19:00,74.2,52.1,29.70,NE,34,11.0,14.0,46,0.00,,---,0.00,VWS V14.00,2013-03-16 19:19:00,
2013-03-16 14:20:00,74.2,52.7,29.70,NE,35,9.0,14.0,47,0.00,,---,0.00,VWS V14.00,2013-03-16 19:20:00,
2013-03-16 14:24:00,74.1,52.0,29.70,NE,34,10.0,12.0,46,0.00,,---,0.00,VWS V14.00,2013-03-16 19:24:00,
2013-03-16 14:25:00,74.1,52.6,29.70,NNE,32,7.0,12.0,47,0.00,,---,0.00,VWS V14.00,2013-03-16 19:25:00,
2013-03-16 14:29:00,74.4,52.3,29.70,ENE,69,0.0,12.0,46,0.00,,---,0.00,VWS V14.00,2013-03-16 19:29:00,
2013-03-16 14:30:00,74.4,52.3,29.70,ENE,69,3.0,12.0,46,0.00,,---,0.00,VWS V14.00,2013-03-16 19:30:00,
2013-03-16 14:34:00,74.5,52.4,29.70,NE,39,5.0,10.0,46,0.00,,---,0.00,VWS V14.00,2013-03-16 19:34:00,
2013-03-16 14:35:00,74.5,52.4,29.70,NE,39,4.0,10.0,46,0.00,,---,0.00,VWS V14.00,2013-03-16 19:35:00,
2013-03-16 14:39:00,74.8,52.1,29.69,ENE,62,7.0,13.0,45,0.00,,---,0.00,VWS V14.00,2013-03-16 19:39:00,
2013-03-16 14:40:00,74.9,52.2,29.69,ENE,59,7.0,13.0,45,0.00,,---,0.00,VWS V14.00,2013-03-16 19:40:00,
2013-03-16 14:44:00,75.4,52.6,29.69,North,5,4.0,13.0,45,0.00,,---,0.00,VWS V14.00,2013-03-16 19:44:00,
2013-03-16 14:45:00,75.4,52.6,29.69,North,5,6.0,13.0,45,0.00,,---,0.00,VWS V14.00,2013-03-16 19:45:00,
2013-03-16 14:49:00,75.6,52.2,29.69,North,10,1.0,13.0,44,0.00,,---,0.00,VWS V14.00,2013-03-16 19:49:00,
2013-03-16 14:50:00,75.6,52.2,29.69,North,10,0.0,13.0,44,0.00,,---,0.00,VWS V14.00,2013-03-16 19:50:00,
2013-03-16 14:54:00,75.9,53.1,29.69,North,5,0.0,6.0,45,0.00,,---,0.00,VWS V14.00,2013-03-16 19:54:00,
2013-03-16 14:55:00,75.9,53.1,29.69,North,5,0.0,6.0,45,0.00,,---,0.00,VWS V14.00,2013-03-16 19:55:00,
2013-03-16 14:59:00,76.2,53.3,29.69,North,355,5.0,5.0,45,0.00,,---,0.00,VWS V14.00,2013-03-16 19:59:00,
2013-03-16 15:00:00,76.2,53.3,29.69,North,355,5.0,5.0,45,0.00,,---,0.00,VWS V14.00,2013-03-16 20:00:00,
2013-03-16 15:04:00,76.6,53.1,29.68,SSE,165,3.0,15.0,44,0.00,,---,0.00,VWS V14.00,2013-03-16 20:04:00,
2013-03-16 15:05:00,76.6,53.1,29.68,SSE,163,3.0,15.0,44,0.00,,---,0.00,VWS V14.00,2013-03-16 20:05:00,
2013-03-16 15:09:00,76.6,52.5,29.68,East,85,6.0,12.0,43,0.00,,---,0.00,VWS V14.00,2013-03-16 20:09:00,
2013-03-16 15:10:00,76.6,52.5,29.68,East,84,5.0,12.0,43,0.00,,---,0.00,VWS V14.00,2013-03-16 20:10:00,
2013-03-16 15:14:00,76.1,52.6,29.68,East,98,5.0,12.0,44,0.00,,---,0.00,VWS V14.00,2013-03-16 20:14:00,
2013-03-16 15:15:00,76.1,52.6,29.68,East,97,5.0,12.0,44,0.00,,---,0.00,VWS V14.00,2013-03-16 20:15:00,
2013-03-16 15:19:00,76.2,52.1,29.68,NE,51,0.0,6.0,43,0.00,,---,0.00,VWS V14.00,2013-03-16 20:19:00,
2013-03-16 15:20:00,76.2,52.1,29.68,NE,51,0.0,6.0,43,0.00,,---,0.00,VWS V14.00,2013-03-16 20:20:00,
2013-03-16 15:24:00,76.4,52.3,29.68,ENE,71,2.0,9.0,43,0.00,,---,0.00,VWS V14.00,2013-03-16 20:24:00,
2013-03-16 15:25:00,76.4,52.3,29.68,ENE,71,3.0,9.0,43,0.00,,---,0.00,VWS V14.00,2013-03-16 20:25:00,
2013-03-16 15:29:00,76.4,52.3,29.67,ENE,61,9.0,10.0,43,0.00,,---,0.00,VWS V14.00,2013-03-16 20:29:00,
2013-03-16 15:30:00,76.4,52.9,29.67,ENE,58,6.0,10.0,44,0.00,,---,0.00,VWS V14.00,2013-03-16 20:30:00,
2013-03-16 15:34:00,76.2,52.7,29.67,NE,49,7.0,11.0,44,0.00,,---,0.00,VWS V14.00,2013-03-16 20:34:00,
2013-03-16 15:35:00,76.2,52.7,29.67,NNE,27,11.0,11.0,44,0.00,,---,0.00,VWS V14.00,2013-03-16 20:35:00,
2013-03-16 15:39:00,76.1,52.6,29.67,ENE,57,4.0,11.0,44,0.00,,---,0.00,VWS V14.00,2013-03-16 20:39:00,
2013-03-16 15:40:00,76.1,52.6,29.67,ENE,57,4.0,11.0,44,0.00,,---,0.00,VWS V14.00,2013-03-16 20:40:00,
2013-03-16 15:44:00,75.7,52.9,29.67,NE,44,3.0,9.0,45,0.00,,---,0.00,VWS V14.00,2013-03-16 20:44:00,
2013-03-16 15:45:00,75.7,52.9,29.67,NE,42,7.0,9.0,45,0.00,,---,0.00,VWS V14.00,2013-03-16 20:45:00,
2013-03-16 15:49:00,76.0,52.5,29.67,ENE,66,3.0,13.0,44,0.00,,---,0.00,VWS V14.00,2013-03-16 20:49:00,
2013-03-16 15:50:00,76.0,52.5,29.67,ENE,63,5.0,13.0,44,0.00,,---,0.00,VWS V14.00,2013-03-16 20:50:00,
2013-03-16 15:54:00,76.2,53.9,29.67,NE,44,6.0,11.0,46,0.00,,---,0.00,VWS V14.00,2013-03-16 20:54:00,
2013-03-16 15:55:00,76.2,53.9,29.67,NE,50,6.0,11.0,46,0.00,,---,0.00,VWS V14.00,2013-03-16 20:55:00,
2013-03-16 15:59:00,76.2,53.9,29.67,NE,41,3.0,10.0,46,0.00,,---,0.00,VWS V14.00,2013-03-16 20:59:00,
2013-03-16 16:00:00,76.2,53.9,29.67,NE,41,4.0,10.0,46,0.00,,---,0.00,VWS V14.00,2013-03-16 21:00:00,
2013-03-16 16:04:00,76.2,53.3,29.67,NE,34,6.0,12.0,45,0.00,,---,0.00,VWS V14.00,2013-03-16 21:04:00,
2013-03-16 16:05:00,76.2,53.9,29.67,NNE,33,9.0,12.0,46,0.00,,---,0.00,VWS V14.00,2013-03-16 21:05:00,
2013-03-16 16:09:00,76.0,53.8,29.67,NNE,28,5.0,12.0,46,0.00,,---,0.00,VWS V14.00,2013-03-16 21:09:00,
2013-03-16 16:10:00,76.0,53.8,29.67,NNE,28,5.0,12.0,46,0.00,,---,0.00,VWS V14.00,2013-03-16 21:10:00,
2013-03-16 16:14:00,75.3,53.1,29.67,NE,37,13.0,17.0,46,0.00,,---,0.00,VWS V14.00,2013-03-16 21:14:00,
2013-03-16 16:15:00,75.3,53.1,29.67,NE,40,13.0,17.0,46,0.00,,---,0.00,VWS V14.00,2013-03-16 21:15:00,
2013-03-16 16:19:00,74.9,53.3,29.66,NNE,31,9.0,15.0,47,0.00,,---,0.00,VWS V14.00,2013-03-16 21:19:00,
2013-03-16 16:20:00,74.9,53.3,29.66,NNE,31,7.0,15.0,47,0.00,,---,0.00,VWS V14.00,2013-03-16 21:20:00,
2013-03-16 16:24:00,74.7,53.2,29.66,North,360,10.0,17.0,47,0.00,,---,0.00,VWS V14.00,2013-03-16 21:24:00,
2013-03-16 16:25:00,74.6,53.1,29.66,North,360,10.0,17.0,47,0.00,,---,0.00,VWS V14.00,2013-03-16 21:25:00,
2013-03-16 16:29:00,74.3,53.4,29.66,North,9,11.0,15.0,48,0.00,,---,0.00,VWS V14.00,2013-03-16 21:29:00,
2013-03-16 16:30:00,74.3,53.4,29.66,North,5,10.0,15.0,48,0.00,,---,0.00,VWS V14.00,2013-03-16 21:30:00,
2013-03-16 16:34:00,74.2,53.3,29.66,NNE,19,8.0,17.0,48,0.00,,---,0.00,VWS V14.00,2013-03-16 21:34:00,
2013-03-16 16:35:00,74.3,53.4,29.66,NNE,18,5.0,17.0,48,0.00,,---,0.00,VWS V14.00,2013-03-16 21:35:00,
2013-03-16 16:39:00,74.6,53.1,29.66,NNE,16,13.0,18.0,47,0.00,,---,0.00,VWS V14.00,2013-03-16 21:39:00,
2013-03-16 16:40:00,74.6,53.1,29.66,NNE,28,17.0,18.0,47,0.00,,---,0.00,VWS V14.00,2013-03-16 21:40:00,
2013-03-16 16:44:00,74.3,52.2,29.66,North,5,10.0,20.0,46,0.00,,---,0.00,VWS V14.00,2013-03-16 21:44:00,
2013-03-16 16:45:00,74.3,52.2,29.66,NNE,24,9.0,20.0,46,0.00,,---,0.00,VWS V14.00,2013-03-16 21:45:00,
2013-03-16 16:49:00,73.5,51.5,29.66,NNE,18,7.0,19.0,46,0.00,,---,0.00,VWS V14.00,2013-03-16 21:49:00,
2013-03-16 16:50:00,73.5,51.5,29.66,NNE,17,9.0,19.0,46,0.00,,---,0.00,VWS V14.00,2013-03-16 21:50:00,
2013-03-16 16:54:00,72.5,51.7,29.67,NNE,23,10.0,21.0,48,0.00,,---,0.00,VWS V14.00,2013-03-16 21:54:00,
2013-03-16 16:55:00,72.4,51.6,29.67,NNE,16,12.0,21.0,48,0.00,,---,0.00,VWS V14.00,2013-03-16 21:55:00,
2013-03-16 16:59:00,72.0,51.8,29.67,NNE,17,15.0,18.0,49,0.00,,---,0.00,VWS V14.00,2013-03-16 21:59:00,
2013-03-16 17:00:00,72.0,51.8,29.67,NNE,28,11.0,18.0,49,0.00,,---,0.00,VWS V14.00,2013-03-16 22:00:00,
2013-03-16 17:04:00,71.7,51.5,29.67,North,5,8.0,20.0,49,0.00,,---,0.00,VWS V14.00,2013-03-16 22:04:00,
2013-03-16 17:05:00,71.7,51.5,29.67,North,355,11.0,20.0,49,0.00,,---,0.00,VWS V14.00,2013-03-16 22:05:00,
2013-03-16 17:09:00,71.5,50.8,29.67,North,5,12.0,20.0,48,0.00,,---,0.00,VWS V14.00,2013-03-16 22:09:00,
2013-03-16 17:10:00,71.5,51.4,29.67,North,11,18.0,20.0,49,0.00,,---,0.00,VWS V14.00,2013-03-16 22:10:00,
2013-03-16 17:14:00,70.9,50.8,29.67,North,5,15.0,21.0,49,0.00,,---,0.00,VWS V14.00,2013-03-16 22:14:00,
2013-03-16 17:15:00,70.9,50.8,29.67,North,5,15.0,21.0,49,0.00,,---,0.00,VWS V14.00,2013-03-16 22:15:00,
2013-03-16 17:19:00,70.1,50.1,29.67,NNE,21,15.0,22.0,49,0.00,,---,0.00,VWS V14.00,2013-03-16 22:19:00,
2013-03-16 17:20:00,70.1,50.1,29.67,NNE,15,17.0,22.0,49,0.00,,---,0.00,VWS V14.00,2013-03-16 22:20:00,
2013-03-16 17:24:00,69.6,50.2,29.68,North,5,18.0,22.0,50,0.00,,---,0.00,VWS V14.00,2013-03-16 22:24:00,
2013-03-16 17:25:00,69.5,50.1,29.68,North,5,15.0,22.0,50,0.00,,---,0.00,VWS V14.00,2013-03-16 22:25:00,
2013-03-16 17:29:00,69.2,50.3,29.68,North,11,16.0,19.0,51,0.00,,---,0.00,VWS V14.00,2013-03-16 22:29:00,
2013-03-16 17:30:00,69.2,50.3,29.68,North,10,16.0,19.0,51,0.00,,---,0.00,VWS V14.00,2013-03-16 22:30:00,
2013-03-16 17:34:00,68.9,50.0,29.68,North,355,12.0,20.0,51,0.00,,---,0.00,VWS V14.00,2013-03-16 22:34:00,
2013-03-16 17:35:00,68.9,50.0,29.68,North,360,12.0,20.0,51,0.00,,---,0.00,VWS V14.00,2013-03-16 22:35:00,
2013-03-16 17:39:00,68.6,49.2,29.69,NNE,24,24.0,24.0,50,0.00,,---,0.00,VWS V14.00,2013-03-16 22:39:00,
2013-03-16 17:40:00,68.5,49.2,29.69,North,360,19.0,24.0,50,0.00,,---,0.00,VWS V14.00,2013-03-16 22:40:00,
2013-03-16 17:44:00,68.0,49.2,29.68,North,360,15.0,21.0,51,0.00,,---,0.00,VWS V14.00,2013-03-16 22:44:00,
2013-03-16 17:45:00,68.0,49.2,29.68,North,360,13.0,21.0,51,0.00,,---,0.00,VWS V14.00,2013-03-16 22:45:00,
2013-03-16 17:49:00,67.5,48.8,29.68,NNE,18,14.0,20.0,51,0.00,,---,0.00,VWS V14.00,2013-03-16 22:49:00,
2013-03-16 17:50:00,67.5,48.8,29.68,North,5,15.0,20.0,51,0.00,,---,0.00,VWS V14.00,2013-03-16 22:50:00,
2013-03-16 17:54:00,66.8,48.1,29.69,NNE,15,17.0,23.0,51,0.00,,---,0.00,VWS V14.00,2013-03-16 22:54:00,
2013-03-16 17:55:00,66.8,48.1,29.69,NNE,13,18.0,23.0,51,0.00,,---,0.00,VWS V14.00,2013-03-16 22:55:00,
2013-03-16 17:59:00,66.2,47.6,29.69,NNE,17,10.0,20.0,51,0.00,,---,0.00,VWS V14.00,2013-03-16 22:59:00,
2013-03-16 18:00:00,66.1,47.5,29.69,North,5,17.0,20.0,51,0.00,,---,0.00,VWS V14.00,2013-03-16 23:00:00,
2013-03-16 18:04:00,65.3,47.2,29.69,NNE,16,12.0,22.0,52,0.00,,---,0.00,VWS V14.00,2013-03-16 23:04:00,
2013-03-16 18:05:00,65.3,47.2,29.69,North,9,11.0,22.0,52,0.00,,---,0.00,VWS V14.00,2013-03-16 23:05:00,
2013-03-16 18:09:00,64.6,47.1,29.68,North,5,17.0,23.0,53,0.00,,---,0.00,VWS V14.00,2013-03-16 23:09:00,
2013-03-16 18:10:00,64.6,47.1,29.68,North,11,16.0,23.0,53,0.00,,---,0.00,VWS V14.00,2013-03-16 23:10:00,
2013-03-16 18:14:00,64.2,47.2,29.69,NNE,33,13.0,20.0,54,0.00,,---,0.00,VWS V14.00,2013-03-16 23:14:00,
2013-03-16 18:15:00,64.1,47.1,29.69,NNE,22,13.0,20.0,54,0.00,,---,0.00,VWS V14.00,2013-03-16 23:15:00,
2013-03-16 18:19:00,63.8,46.8,29.68,North,9,19.0,27.0,54,0.00,,---,0.00,VWS V14.00,2013-03-16 23:19:00,
2013-03-16 18:20:00,63.8,46.8,29.68,North,11,19.0,27.0,54,0.00,,---,0.00,VWS V14.00,2013-03-16 23:20:00,
2013-03-16 18:24:00,63.4,46.5,29.69,NNE,19,11.0,24.0,54,0.00,,---,0.00,VWS V14.00,2013-03-16 23:24:00,
2013-03-16 18:25:00,63.4,46.5,29.69,NNE,15,11.0,24.0,54,0.00,,---,0.00,VWS V14.00,2013-03-16 23:25:00,
2013-03-16 18:29:00,63.1,46.2,29.69,NNE,16,13.0,19.0,54,0.00,,---,0.00,VWS V14.00,2013-03-16 23:29:00,
2013-03-16 18:30:00,63.1,46.2,29.69,NNE,18,15.0,19.0,54,0.00,,---,0.00,VWS V14.00,2013-03-16 23:30:00,
2013-03-16 18:34:00,62.6,46.2,29.69,NNE,15,13.0,21.0,55,0.00,,---,0.00,VWS V14.00,2013-03-16 23:34:00,
2013-03-16 18:35:00,62.6,46.2,29.69,NNE,32,14.0,21.0,55,0.00,,---,0.00,VWS V14.00,2013-03-16 23:35:00,
2013-03-16 18:39:00,62.1,45.8,29.69,North,11,12.0,19.0,55,0.00,,---,0.00,VWS V14.00,2013-03-16 23:39:00,
2013-03-16 18:40:00,62.1,45.8,29.69,North,5,14.0,19.0,55,0.00,,---,0.00,VWS V14.00,2013-03-16 23:40:00,
2013-03-16 18:44:00,61.5,45.2,29.70,NNE,26,11.0,21.0,55,0.00,,---,0.00,VWS V14.00,2013-03-16 23:44:00,
2013-03-16 18:45:00,61.5,45.2,29.70,NNE,27,10.0,21.0,55,0.00,,---,0.00,VWS V14.00,2013-03-16 23:45:00,
2013-03-16 18:49:00,60.9,44.6,29.70,North,11,12.0,26.0,55,0.00,,---,0.00,VWS V14.00,2013-03-16 23:49:00,
2013-03-16 18:50:00,60.9,44.6,29.70,NNE,24,11.0,26.0,55,0.00,,---,0.00,VWS V14.00,2013-03-16 23:50:00,
2013-03-16 18:54:00,60.5,44.7,29.70,North,11,13.0,20.0,56,0.00,,---,0.00,VWS V14.00,2013-03-16 23:54:00,
2013-03-16 18:55:00,60.5,44.7,29.70,NNE,13,12.0,20.0,56,0.00,,---,0.00,VWS V14.00,2013-03-16 23:55:00,
2013-03-16 18:59:00,60.2,44.5,29.71,North,9,10.0,20.0,56,0.00,,---,0.00,VWS V14.00,2013-03-16 23:59:00,
2013-03-16 19:00:00,60.2,44.5,29.71,North,360,13.0,20.0,56,0.00,,---,0.00,VWS V14.00,2013-03-17 00:00:00,
2013-03-16 19:04:00,59.8,44.1,29.71,NNE,25,11.0,17.0,56,0.00,,---,0.00,VWS V14.00,2013-03-17 00:04:00,
2013-03-16 19:05:00,59.8,44.1,29.71,NNE,21,10.0,17.0,56,0.00,,---,0.00,VWS V14.00,2013-03-17 00:05:00,
2013-03-16 19:09:00,59.5,44.3,29.71,NNE,14,10.0,16.0,57,0.00,,---,0.00,VWS V14.00,2013-03-17 00:09:00,
2013-03-16 19:10:00,59.5,44.3,29.71,NNE,14,13.0,16.0,57,0.00,,---,0.00,VWS V14.00,2013-03-17 00:10:00,
2013-03-16 19:14:00,59.3,44.1,29.71,North,5,11.0,20.0,57,0.00,,---,0.00,VWS V14.00,2013-03-17 00:14:00,
2013-03-16 19:15:00,59.3,44.1,29.71,NNE,17,15.0,20.0,57,0.00,,---,0.00,VWS V14.00,2013-03-17 00:15:00,
2013-03-16 19:19:00,59.0,43.8,29.71,NNE,14,10.0,24.0,57,0.00,,---,0.00,VWS V14.00,2013-03-17 00:19:00,
2013-03-16 19:20:00,59.0,43.8,29.71,NNE,12,10.0,24.0,57,0.00,,---,0.00,VWS V14.00,2013-03-17 00:20:00,
2013-03-16 19:24:00,58.9,43.7,29.71,NNE,24,15.0,22.0,57,0.00,,---,0.00,VWS V14.00,2013-03-17 00:24:00,
2013-03-16 19:25:00,58.8,43.6,29.71,NNE,19,15.0,22.0,57,0.00,,---,0.00,VWS V14.00,2013-03-17 00:25:00,
2013-03-16 19:29:00,58.4,43.7,29.71,North,5,11.0,20.0,58,0.00,,---,0.00,VWS V14.00,2013-03-17 00:29:00,
2013-03-16 19:30:00,58.4,43.7,29.71,North,355,14.0,20.0,58,0.00,,---,0.00,VWS V14.00,2013-03-17 00:30:00,
2013-03-16 19:34:00,58.0,43.3,29.72,North,11,13.0,20.0,58,0.00,,---,0.00,VWS V14.00,2013-03-17 00:34:00,
2013-03-16 19:35:00,58.0,43.3,29.72,North,360,17.0,20.0,58,0.00,,---,0.00,VWS V14.00,2013-03-17 00:35:00,
2013-03-16 19:39:00,57.7,43.0,29.72,North,9,16.0,18.0,58,0.00,,---,0.00,VWS V14.00,2013-03-17 00:39:00,
2013-03-16 19:40:00,57.7,43.0,29.72,North,11,20.0,20.0,58,0.00,,---,0.00,VWS V14.00,2013-03-17 00:40:00,
2013-03-16 19:44:00,57.4,44.1,29.71,NNE,24,13.0,20.0,61,0.00,,---,0.00,VWS V14.00,2013-03-17 00:44:00,
2013-03-16 19:45:00,57.4,44.1,29.71,NNE,26,11.0,20.0,61,0.00,,---,0.00,VWS V14.00,2013-03-17 00:45:00,
2013-03-16 19:49:00,57.2,43.0,29.72,NNE,24,12.0,22.0,59,0.00,,---,0.00,VWS V14.00,2013-03-17 00:49:00,
2013-03-16 19:50:00,57.2,43.0,29.72,NNE,23,12.0,22.0,59,0.00,,---,0.00,VWS V14.00,2013-03-17 00:50:00,
2013-03-16 19:54:00,57.1,42.9,29.72,North,11,14.0,22.0,59,0.00,,---,0.00,VWS V14.00,2013-03-17 00:54:00,
2013-03-16 19:55:00,57.1,42.9,29.72,NNE,24,14.0,22.0,59,0.00,,---,0.00,VWS V14.00,2013-03-17 00:55:00,
2013-03-16 19:59:00,56.9,43.2,29.72,NNE,26,15.0,18.0,60,0.00,,---,0.00,VWS V14.00,2013-03-17 00:59:00,
2013-03-16 20:00:00,56.9,43.2,29.72,NNE,25,15.0,18.0,60,0.00,,---,0.00,VWS V14.00,2013-03-17 01:00:00,
2013-03-16 20:04:00,56.5,42.8,29.72,NNE,21,15.0,21.0,60,0.00,,---,0.00,VWS V14.00,2013-03-17 01:04:00,
2013-03-16 20:05:00,56.5,42.8,29.72,NNE,22,13.0,21.0,60,0.00,,---,0.00,VWS V14.00,2013-03-17 01:05:00,
2013-03-16 20:09:00,56.3,42.6,29.72,NNE,26,11.0,18.0,60,0.00,,---,0.00,VWS V14.00,2013-03-17 01:09:00,
2013-03-16 20:10:00,56.2,42.5,29.72,NNE,26,7.0,18.0,60,0.00,,---,0.00,VWS V14.00,2013-03-17 01:10:00,
2013-03-16 20:14:00,56.0,42.8,29.73,NNE,24,12.0,15.0,61,0.00,,---,0.00,VWS V14.00,2013-03-17 01:14:00,
2013-03-16 20:15:00,56.0,42.8,29.73,NNE,22,16.0,16.0,61,0.00,,---,0.00,VWS V14.00,2013-03-17 01:15:00,
2013-03-16 20:19:00,55.7,42.0,29.72,NNE,19,12.0,20.0,60,0.00,,---,0.00,VWS V14.00,2013-03-17 01:19:00,
2013-03-16 20:20:00,55.7,42.0,29.72,NNE,20,13.0,20.0,60,0.00,,---,0.00,VWS V14.00,2013-03-17 01:20:00,
2013-03-16 20:24:00,55.4,42.2,29.73,NNE,30,14.0,17.0,61,0.00,,---,0.00,VWS V14.00,2013-03-17 01:24:00,
2013-03-16 20:25:00,55.3,42.1,29.73,NNE,26,11.0,17.0,61,0.00,,---,0.00,VWS V14.00,2013-03-17 01:25:00,
2013-03-16 20:29:00,55.1,42.3,29.73,NNE,22,11.0,15.0,62,0.00,,---,0.00,VWS V14.00,2013-03-17 01:29:00,
2013-03-16 20:30:00,55.1,42.3,29.73,NNE,22,8.0,15.0,62,0.00,,---,0.00,VWS V14.00,2013-03-17 01:30:00,
2013-03-16 20:34:00,54.8,42.0,29.73,NNE,33,7.0,18.0,62,0.00,,---,0.00,VWS V14.00,2013-03-17 01:34:00,
2013-03-16 20:35:00,54.8,42.0,29.73,NE,38,13.0,18.0,62,0.00,,---,0.00,VWS V14.00,2013-03-17 01:35:00,
2013-03-16 20:39:00,54.7,42.0,29.73,NE,34,10.0,17.0,62,0.00,,---,0.00,VWS V14.00,2013-03-17 01:39:00,
2013-03-16 20:40:00,54.7,42.0,29.73,NNE,23,15.0,17.0,62,0.00,,---,0.00,VWS V14.00,2013-03-17 01:40:00,
2013-03-16 20:44:00,54.6,41.9,29.74,North,360,15.0,21.0,62,0.00,,---,0.00,VWS V14.00,2013-03-17 01:44:00,
2013-03-16 20:45:00,54.6,41.9,29.74,NNE,13,11.0,21.0,62,0.00,,---,0.00,VWS V14.00,2013-03-17 01:45:00,
2013-03-16 20:49:00,54.5,41.8,29.74,NNE,19,15.0,19.0,62,0.00,,---,0.00,VWS V14.00,2013-03-17 01:49:00,
2013-03-16 20:50:00,54.5,41.8,29.74,NNE,13,13.0,19.0,62,0.00,,---,0.00,VWS V14.00,2013-03-17 01:50:00,
2013-03-16 20:54:00,54.4,41.7,29.74,NNE,21,16.0,20.0,62,0.00,,---,0.00,VWS V14.00,2013-03-17 01:54:00,
2013-03-16 20:55:00,54.4,41.7,29.74,NNE,17,14.0,20.0,62,0.00,,---,0.00,VWS V14.00,2013-03-17 01:55:00,
2013-03-16 20:59:00,54.3,41.6,29.74,NE,34,12.0,25.0,62,0.00,,---,0.00,VWS V14.00,2013-03-17 01:59:00,
2013-03-16 21:00:00,54.3,41.6,29.74,NNE,19,15.0,25.0,62,0.00,,---,0.00,VWS V14.00,2013-03-17 02:00:00,
2013-03-16 21:04:00,54.1,41.4,29.74,NNE,27,14.0,20.0,62,0.00,,---,0.00,VWS V14.00,2013-03-17 02:04:00,
2013-03-16 21:05:00,54.1,41.4,29.74,NNE,26,14.0,20.0,62,0.00,,---,0.00,VWS V14.00,2013-03-17 02:05:00,
2013-03-16 21:09:00,53.9,41.2,29.74,North,5,19.0,25.0,62,0.00,,---,0.00,VWS V14.00,2013-03-17 02:09:00,
2013-03-16 21:10:00,53.9,41.2,29.74,NNE,32,20.0,25.0,62,0.00,,---,0.00,VWS V14.00,2013-03-17 02:10:00,
2013-03-16 21:14:00,53.8,41.1,29.74,NNE,19,10.0,20.0,62,0.00,,---,0.00,VWS V14.00,2013-03-17 02:14:00,
2013-03-16 21:15:00,53.8,41.5,29.74,NNE,29,12.0,20.0,63,0.00,,---,0.00,VWS V14.00,2013-03-17 02:15:00,
2013-03-16 21:19:00,53.6,40.9,29.74,NNE,23,14.0,23.0,62,0.00,,---,0.00,VWS V14.00,2013-03-17 02:19:00,
2013-03-16 21:20:00,53.5,40.8,29.74,NNE,30,11.0,23.0,62,0.00,,---,0.00,VWS V14.00,2013-03-17 02:20:00,
2013-03-16 21:24:00,53.3,41.0,29.74,NE,38,16.0,24.0,63,0.00,,---,0.00,VWS V14.00,2013-03-17 02:24:00,
2013-03-16 21:25:00,53.3,41.0,29.74,NNE,20,19.0,24.0,63,0.00,,---,0.00,VWS V14.00,2013-03-17 02:25:00,
2013-03-16 21:29:00,53.1,40.8,29.74,NNE,24,12.0,22.0,63,0.00,,---,0.00,VWS V14.00,2013-03-17 02:29:00,
2013-03-16 21:30:00,53.1,40.8,29.74,NE,51,12.0,22.0,63,0.00,,---,0.00,VWS V14.00,2013-03-17 02:30:00,
2013-03-16 21:34:00,53.0,40.8,29.75,NNE,22,9.0,23.0,63,0.00,,---,0.00,VWS V14.00,2013-03-17 02:34:00,
2013-03-16 21:35:00,53.0,40.8,29.75,NNE,21,15.0,23.0,63,0.00,,---,0.00,VWS V14.00,2013-03-17 02:35:00,
2013-03-16 21:39:00,52.8,40.6,29.75,NNE,15,17.0,22.0,63,0.00,,---,0.00,VWS V14.00,2013-03-17 02:39:00,
2013-03-16 21:40:00,52.9,40.7,29.75,NE,34,11.0,22.0,63,0.00,,---,0.00,VWS V14.00,2013-03-17 02:40:00,
2013-03-16 21:44:00,52.7,40.5,29.75,NNE,20,14.0,20.0,63,0.00,,---,0.00,VWS V14.00,2013-03-17 02:44:00,
2013-03-16 21:45:00,52.7,40.5,29.75,NNE,18,13.0,20.0,63,0.00,,---,0.00,VWS V14.00,2013-03-17 02:45:00,
2013-03-16 21:49:00,52.6,40.4,29.75,NNE,25,18.0,22.0,63,0.00,,---,0.00,VWS V14.00,2013-03-17 02:49:00,
2013-03-16 21:50:00,52.6,40.4,29.75,NNE,22,16.0,22.0,63,0.00,,---,0.00,VWS V14.00,2013-03-17 02:50:00,
2013-03-16 21:54:00,52.6,40.4,29.75,NNE,26,15.0,25.0,63,0.00,,---,0.00,VWS V14.00,2013-03-17 02:54:00,
2013-03-16 21:55:00,52.6,40.4,29.75,NNE,22,13.0,25.0,63,0.00,,---,0.00,VWS V14.00,2013-03-17 02:55:00,
2013-03-16 21:59:00,52.6,40.4,29.76,NNE,21,15.0,22.0,63,0.00,,---,0.00,VWS V14.00,2013-03-17 02:59:00,
2013-03-16 22:00:00,52.6,40.4,29.76,North,11,14.0,22.0,63,0.00,,---,0.00,VWS V14.00,2013-03-17 03:00:00,
2013-03-16 22:04:00,52.6,40.4,29.76,NNE,13,12.0,20.0,63,0.00,,---,0.00,VWS V14.00,2013-03-17 03:04:00,
2013-03-16 22:05:00,52.6,40.4,29.76,NNE,14,13.0,20.0,63,0.00,,---,0.00,VWS V14.00,2013-03-17 03:05:00,
2013-03-16 22:09:00,52.5,40.3,29.75,North,11,14.0,22.0,63,0.00,,---,0.00,VWS V14.00,2013-03-17 03:09:00,
2013-03-16 22:10:00,52.4,40.2,29.75,North,5,17.0,22.0,63,0.00,,---,0.00,VWS V14.00,2013-03-17 03:10:00,
2013-03-16 22:14:00,52.3,40.1,29.76,NNE,14,9.0,19.0,63,0.00,,---,0.00,VWS V14.00,2013-03-17 03:14:00,
2013-03-16 22:15:00,52.4,40.6,29.76,North,355,13.0,19.0,64,0.00,,---,0.00,VWS V14.00,2013-03-17 03:15:00,
2013-03-16 22:19:00,52.3,40.5,29.76,NNE,25,17.0,27.0,64,0.00,,---,0.00,VWS V14.00,2013-03-17 03:19:00,
2013-03-16 22:20:00,52.3,40.5,29.76,NNE,17,16.0,27.0,64,0.00,,---,0.00,VWS V14.00,2013-03-17 03:20:00,
2013-03-16 22:24:00,52.2,40.4,29.77,NNE,17,11.0,18.0,64,0.00,,---,0.00,VWS V14.00,2013-03-17 03:24:00,
2013-03-16 22:25:00,52.2,40.4,29.77,North,11,9.0,18.0,64,0.00,,---,0.00,VWS V14.00,2013-03-17 03:25:00,
2013-03-16 22:29:00,52.1,40.3,29.77,North,355,18.0,20.0,64,0.00,,---,0.00,VWS V14.00,2013-03-17 03:29:00,
2013-03-16 22:30:00,52.1,40.3,29.77,North,5,19.0,21.0,64,0.00,,---,0.00,VWS V14.00,2013-03-17 03:30:00,
2013-03-16 22:34:00,52.0,40.2,29.77,North,9,14.0,22.0,64,0.00,,---,0.00,VWS V14.00,2013-03-17 03:34:00,
2013-03-16 22:35:00,52.0,40.2,29.77,NNE,17,12.0,22.0,64,0.00,,---,0.00,VWS V14.00,2013-03-17 03:35:00,
2013-03-16 22:39:00,51.9,40.1,29.77,NNE,30,14.0,20.0,64,0.00,,---,0.00,VWS V14.00,2013-03-17 03:39:00,
2013-03-16 22:40:00,51.9,40.1,29.77,NNE,28,15.0,20.0,64,0.00,,---,0.00,VWS V14.00,2013-03-17 03:40:00,
2013-03-16 22:44:00,51.8,40.0,29.77,North,9,11.0,19.0,64,0.00,,---,0.00,VWS V14.00,2013-03-17 03:44:00,
2013-03-16 22:45:00,51.8,40.0,29.77,North,360,11.0,19.0,64,0.00,,---,0.00,VWS V14.00,2013-03-17 03:45:00,
2013-03-16 22:49:00,51.7,40.3,29.77,NNE,17,15.0,17.0,65,0.00,,---,0.00,VWS V14.00,2013-03-17 03:49:00,
2013-03-16 22:50:00,51.7,40.3,29.77,NNE,17,14.0,17.0,65,0.00,,---,0.00,VWS V14.00,2013-03-17 03:50:00,
2013-03-16 22:54:00,51.5,40.1,29.77,NNE,25,13.0,18.0,65,0.00,,---,0.00,VWS V14.00,2013-03-17 03:54:00,
2013-03-16 22:55:00,51.5,40.1,29.77,NNE,29,14.0,18.0,65,0.00,,---,0.00,VWS V14.00,2013-03-17 03:55:00,
2013-03-16 22:59:00,51.4,40.0,29.77,NNE,16,11.0,19.0,65,0.00,,---,0.00,VWS V14.00,2013-03-17 03:59:00,
2013-03-16 23:00:00,51.4,40.0,29.77,North,5,12.0,13.0,65,0.00,,---,0.00,VWS V14.00,2013-03-17 04:00:00,
2013-03-16 23:05:00,51.3,40.0,29.77,North,11,14.0,16.0,65,0.00,,---,0.00,VWS V14.00,2013-03-17 04:05:00,
2013-03-16 23:10:00,51.2,39.8,29.77,NNE,26,11.0,17.0,65,0.00,,---,0.00,VWS V14.00,2013-03-17 04:10:00,
2013-03-16 23:15:00,51.2,39.8,29.77,NNE,27,12.0,20.0,65,0.00,,---,0.00,VWS V14.00,2013-03-17 04:15:00,
2013-03-16 23:20:00,50.9,39.6,29.77,NNE,24,8.0,13.0,65,0.00,,---,0.00,VWS V14.00,2013-03-17 04:20:00,
2013-03-16 23:25:00,50.8,39.9,29.78,NNE,22,15.0,16.0,66,0.00,,---,0.00,VWS V14.00,2013-03-17 04:25:00,
2013-03-16 23:30:00,50.7,39.8,29.78,North,5,15.0,17.0,66,0.00,,---,0.00,VWS V14.00,2013-03-17 04:30:00,
2013-03-16 23:35:00,50.5,39.6,29.77,NNE,24,19.0,19.0,66,0.00,,---,0.00,VWS V14.00,2013-03-17 04:35:00,
2013-03-16 23:40:00,50.1,39.6,29.77,NNE,13,17.0,20.0,67,0.00,,---,0.00,VWS V14.00,2013-03-17 04:40:00,
2013-03-16 23:45:00,49.9,39.4,29.77,NNE,17,14.0,20.0,67,0.00,,---,0.00,VWS V14.00,2013-03-17 04:45:00,
2013-03-16 23:50:00,49.8,39.3,29.78,North,5,16.0,21.0,67,0.00,,---,0.00,VWS V14.00,2013-03-17 04:50:00,
2013-03-16 23:55:00,49.7,39.2,29.78,NNE,17,9.0,18.0,67,0.00,,---,0.00,VWS V14.00,2013-03-17 04:55:00,